EHI
0 0 0 0 0 0 0 0 0 0 0 0 0 0 0 0 0 0 0 0 0 0 0 0 0 0 0 0 0 0 0 0 0 0 0 0 0 0 0 0 0 0 0 0
0 0 0 0 0 0 0 0 0 0 0 0 0 0 0 0 0 0 0 0 0 0 0 0 0 0 0 0 0 0 0 0 0 0 0 0 0 0 0 0 0 0 0 0
0 0 0 0 0 0 0 0 0 0 0 0 0 0 0 0 0 0 0 0 0 0 0 0 0 0 0 0 0 0 0 0 0 0 0 0 0 0 0 0 0 0 0 0
0 0 0 0 0 0 0 0 0 0 0 0 0 0 0 0 0 0 0 0 0 0 0 0 0 0 0 0 0 0 0 0 0 0 0 0 0 0 0 0 0 0 0 0
0 0 0 0 0 0 0 0 0 0 0 0 0 0 0 0 0 0 0 0 0 0 0 0 0 0 0 0 0 0 0 0 0 0 0 0 0 0 0 0 0 0 0 0
0 0 0 0 0 0 0 0 0 0 0 0 0 0 0 0 0 0 0 0 0 0 0 0 0 0 0 0 0 0 0 0 0 0 0 0 0 0 0 0 0 0 0 0
0 0 0 0 0 0 0 0 0 0 0 0 0 0 0 0 0 0 0 0 0 0 0 0 0 0 0 0 0 0 0 0 0 0 0 0 0 0 0 0 0 0 0 0
0 0 0 0 0 0 0 0 0 0 0 0 0 0 0 0 0 0 0 0 0 0 0 0 0 0 0 0 0 0 0 0 0 0 0 0 0 0 0 0 0 0 0 0
0 0 0 0 0 0 0 0 0 0 0 0 0 0 0 0 0 0 0 0 0 0 0 0 0 0 0 0 0 0 0 0 0 0 0 0 0 0 0 0 0 0 0 0
0 0 0 0 0 0 0 0 0 0 0 0 0 0 0 0 0 0 0 0 0 0 0 0 0 0 0 0 0 0 0 0 0 0 0 0 0 0 0 0 0 0 0 0
0 0 0 0 0 0 0 0 0 0 0 0 0 0 0 0 0 0 0 0 0 0 0 0 0 0 0 0 0 0 0 0 0 0 0 0 0 0 0 0 0 0 0 0
0 0 0 0 0 0 0 0 0 0 0 0 0 0 0 0 0 0 0 0 0 0 0 0 0 0 0 0 0 0 0 0 0 0 0 0 0 0 0 0 0 0 0 0
0 0 0 0 0 0 0 0 0 0 0 0 0 0 0 0 0 0 0 0 0 0 0 0 0 0 0 0 0 0 0 0 0 0 0 0 0 0 0 0 0 0 0 0
0 0 0 0 0 0 0 0 0 0 0 0 0 0 0 0 0 0 0 0 0 0 0 0 0 0 0 0 0 0 0 0 0 0 0 0 0 0 0 0 0 0 0 0
0 0 0 0 0 0 0 0 0 0 0 0 0 0 0 0 0 0 0 0 0 0 0 0 0 0 0 0 0 0 0 0 0 0 0 0 0 0 0 0 0 0 0 0
0 0 0 0 0 0 0 0 0 0 0 0 0 0 0 0 0 0 0 0 0 0 0 0 0 0 0 0 0 0 0 0 0 0 0 0 0 0 0 0 0 0 0 0
0 0 0 0 0 0 0 0 0 0 0 0 0 0 0 0 0 0 0 0 0 0 0 0 0 0 0 0 0 0 0 0 0 0 0 0 0 0 0 0 0 0 0 0
0 0 0 0 0 0 0 0 0 0 0 0 0 0 0 0 0 0 0 0 0 0 0 0 0 0 0 0 0 0 0 0 0 0 0 0 0 0 0 0 0 0 0 0
0 0 0 0 0 0 0 0 0 0 0 0 0 0 0 0 0 0 0 0 0 0 0 0 0 0 0 0 0 0 0 0 0 0 0 0 0 0 0 0 0 0 0 0
0 0 0 0 0 0 0 0 0 0 0 0 0 0 0 0 0 0 0 0 0 0 0 0 0 0 0 0 0 0 0 0 0 0 0 0 0 0 0 0 0 0 0 0
0 0 0 0 0 0 0 0 0 0 0 0 0 0 0 0 0 0 0 0 0 0 0 0 0 0 0 0 0 0 0 0 0 0 0 0 0 0 0 0 0 0 0 0
0 0 0 0 0 0 0 0 0 0 0 0 0 0 0 0 0 0 0 0 0 0 0 0 0 0 0 0 0 0 0 0 0 0 0 0 0 0 0 0 0 0 0 0
0 0 0 0 0 0 0 0 0 0 0 0 0 0 0 0 0 0 0 0 0 0 0 0 0 0 0 0 0 0 0 0 0 0 0 0 0 0 0 0 0 0 0 0
0 0 0 0 0 0 0 0 0 0 0 0 0 0 0 0 0 0 0 0 0 0 0 0 0 0 0 0 0 0 0 0 0 0 0 0 0 0 0 0 0 0 0 0
0 0 0 0 0 0 0 0 0 0 0 0 0 0 0 0 0 0 0 0 0 0 0 0 0 0 0 0 0 0 0 0 0 0 0 0 0 0 0 0 0 0 0 0
0 0 0 0 0 0 0 0 0 0 0 0 0 0 0 0 0 0 0 0 0 0 0 0 0 0 0 0 0 0 0 0 0 0 0 0 0 0 0 0 0 0 0 0
0 0 0 0 0 0 0 0 0 0 0 0 0 0 0 0 0 0 0 0 0 0 0 0 0 0 0 0 0 0 0 0 0 0 0 0 0 0 0 0 0 0 0 0
Wind_Speed
5 4 4 5 6 8 7 8 8 8 8 9 9 10 9 8 7 7 7 7 7 6 5 4 4 3 3 2 2 2 2 2 1 1 0 0 1 1 1 1 1 1 2 2
2 2 3 3 5 8 7 5 6 4 8 7 4 5 6 9 10 10 9 9 8 7 6 6 5 4 3 3 2 2 2 2 1 1 1 0 0 1 1 1 1 1 2 2
2 2 2 5 8 9 7 7 9 10 10 5 5 10 13 13 12 12 11 10 9 9 7 7 6 5 5 3 2 3 2 1 1 1 1 0 0 0 1 1 1 2 2 2
1 1 5 9 3 6 6 7 8 6 5 9 9 8 7 8 12 12 11 10 9 8 7 6 5 4 4 3 3 3 2 1 1 1 1 0 0 0 1 1 1 1 2 3
4 3 6 9 4 6 6 7 7 8 6 4 4 4 2 7 10 11 11 9 8 8 7 6 6 5 5 4 3 3 2 1 1 2 1 1 0 1 1 1 1 2 2 3
4 3 6 9 3 3 4 5 5 8 8 8 9 4 7 7 9 8 7 7 7 7 6 6 6 6 6 4 4 3 3 2 2 2 2 1 2 2 1 1 2 2 3 3
5 5 9 9 2 5 4 9 4 7 9 12 11 8 4 8 8 8 8 7 8 8 7 7 7 7 6 5 4 4 3 2 1 1 2 2 1 1 1 1 1 2 3 3
5 4 10 4 6 8 9 3 3 6 8 10 6 3 5 8 8 9 8 7 8 8 7 5 7 8 6 6 4 3 3 2 1 1 1 1 1 1 1 0 1 2 3 4
9 9 5 3 7 5 2 3 4 6 6 7 6 5 5 6 8 8 9 8 7 8 7 5 6 7 8 6 4 4 3 2 1 1 1 1 1 1 1 1 1 2 2 3
4 8 6 6 5 4 4 4 4 5 7 9 7 7 6 7 7 7 7 8 7 8 8 6 6 6 6 5 5 5 4 3 2 1 1 1 1 1 1 2 2 2 3 4
5 7 6 5 4 4 3 2 2 3 5 8 9 7 7 7 8 8 7 7 8 9 9 8 7 6 5 5 6 5 4 3 2 2 2 2 2 2 3 4 4 4 4 4
7 6 5 6 4 2 3 3 4 4 4 4 7 9 7 7 7 7 7 7 7 7 7 7 7 6 5 5 6 5 4 3 2 2 2 2 2 3 4 6 8 9 9 7
5 3 5 5 4 2 3 4 4 5 6 6 5 7 7 6 6 6 7 8 9 9 8 7 7 6 6 6 6 6 5 4 3 2 2 2 2 2 4 5 6 8 9 9
4 2 3 3 4 3 2 2 2 2 3 4 5 5 6 5 5 7 8 9 8 7 6 6 6 6 6 6 6 5 4 5 4 3 3 3 3 3 3 4 5 5 6 9
4 5 5 3 1 0 1 2 3 2 2 3 4 6 7 7 7 8 7 6 6 6 6 6 6 6 5 6 6 5 4 3 3 3 3 3 3 3 3 4 4 5 5 6
3 2 1 1 2 1 2 3 4 3 3 3 4 5 6 6 5 5 5 7 8 8 8 8 8 7 6 6 6 4 4 7 5 3 3 3 3 3 4 4 5 5 5 6
2 2 2 2 3 3 3 4 4 5 4 4 5 5 4 5 4 4 5 6 7 7 7 7 7 6 6 6 6 4 4 4 6 3 3 4 4 4 5 5 5 5 6 7
5 5 4 5 5 4 3 2 2 3 4 4 3 4 5 6 6 6 5 4 4 4 5 6 6 5 6 6 6 4 4 4 3 4 4 4 4 5 5 5 6 6 6 7
2 2 2 2 3 3 3 3 3 2 2 3 4 4 5 5 5 5 4 5 5 6 6 6 9 7 6 7 7 4 4 4 4 4 4 6 5 4 5 5 6 6 6 6
1 1 1 0 1 1 2 2 2 2 1 2 3 3 2 3 4 4 5 5 6 6 6 6 6 5 6 6 7 4 5 5 5 5 4 4 5 5 5 5 6 6 6 6
1 1 1 1 1 1 1 2 2 2 2 3 4 4 4 3 3 4 4 4 5 5 4 6 5 5 5 6 7 4 5 5 5 5 5 5 5 5 5 6 6 6 7 7
1 1 1 1 1 0 1 1 2 2 2 2 2 2 2 2 2 3 4 5 5 5 3 3 4 6 7 7 4 4 5 5 5 4 4 5 5 5 6 6 6 7 7 7
1 1 1 1 2 1 0 0 1 2 2 3 3 3 4 3 3 3 3 4 3 5 4 4 6 9 9 5 4 5 5 5 5 5 5 5 5 6 6 7 7 7 7 7
2 1 1 1 0 1 1 2 1 1 2 2 3 4 4 3 2 3 4 5 5 5 4 6 9 10 8 4 4 5 5 5 6 6 6 5 5 6 6 7 7 7 7 9
2 2 1 0 1 2 2 2 1 1 1 2 2 3 3 3 4 4 3 3 5 5 3 6 9 8 5 4 4 5 5 6 6 5 5 5 6 6 6 7 7 7 7 7
2 2 2 2 2 2 2 2 2 2 2 2 3 3 2 2 2 3 3 3 4 4 3 3 4 5 4 4 5 6 6 6 7 6 6 6 6 7 7 7 9 8 7 7
2 2 2 2 2 2 2 2 3 3 3 3 3 3 3 2 2 2 3 3 3 3 3 3 3 4 4 4 5 6 5 5 5 6 6 6 6 6 7 8 7 7 7 7
Wind_Direction
227 226 190 205 196 178 187 191 193 224 223 236 212 200 193 179 169 168 175 179 180 181 180 177 172 171 167 170 163 146 140 147 183 192 133 77 16 337 339 335 327 325 341 340
281 246 210 233 223 198 209 204 217 235 251 243 193 162 170 177 177 183 188 189 185 180 178 181 181 177 166 164 167 150 153 172 173 123 101 84 329 342 343 327 326 342 332 325
268 315 44 265 227 200 205 203 185 209 231 179 171 188 192 189 188 192 191 188 185 184 185 184 182 174 171 173 153 141 144 141 128 136 136 241 309 25 315 299 314 322 315 317
163 79 241 246 243 198 206 228 212 222 216 189 195 195 193 188 188 192 189 186 186 182 181 179 172 167 157 144 141 136 129 126 129 137 157 185 96 293 286 284 282 289 298 303
135 199 274 292 255 180 185 254 216 210 213 174 119 91 247 206 194 194 189 184 181 177 172 165 167 163 144 140 140 136 149 170 182 171 167 158 228 268 269 263 279 278 284 296
137 174 237 252 253 169 125 277 239 188 180 154 132 158 236 197 183 183 174 168 163 157 151 159 168 154 145 152 152 173 192 195 188 171 164 187 227 248 248 241 257 278 292 290
167 209 257 252 224 127 163 242 229 179 172 167 180 198 187 157 171 171 165 162 156 155 163 173 164 153 155 161 186 200 188 174 172 181 182 200 209 235 261 268 291 297 298 299
153 187 252 233 148 181 215 234 186 183 179 181 189 156 150 159 164 162 160 158 158 160 168 167 161 159 164 188 200 175 158 159 185 209 221 187 169 265 302 287 296 298 304 307
187 210 238 220 214 239 214 214 203 187 184 168 165 176 168 166 167 167 166 164 163 162 161 165 171 170 177 196 176 161 157 178 210 218 227 208 191 223 277 276 270 286 289 292
246 267 261 257 252 254 222 228 222 189 171 166 172 175 171 169 169 168 169 168 162 158 164 178 185 187 189 180 169 162 173 195 207 209 236 247 230 213 217 243 255 269 273 277
256 277 298 288 253 253 242 229 192 167 173 174 166 173 175 175 177 176 172 169 167 172 179 186 184 190 186 172 163 167 182 199 211 218 227 243 249 236 232 236 232 243 249 251
227 234 215 260 276 237 218 222 193 166 168 178 175 176 175 178 180 175 173 169 172 179 182 184 182 188 187 178 170 170 184 204 212 218 229 235 255 289 268 258 274 270 266 265
233 248 220 260 279 238 221 222 200 184 179 179 178 172 171 174 176 171 172 175 183 187 186 181 180 190 193 184 176 179 191 203 210 217 225 237 246 260 289 299 290 281 280 282
242 232 252 255 258 254 223 199 164 156 169 168 167 163 162 162 166 175 187 191 185 178 177 177 180 197 197 183 179 188 196 212 213 217 226 234 241 246 250 268 292 292 289 289
245 218 232 257 276 273 149 129 128 149 158 158 158 163 167 171 182 193 192 175 161 166 178 179 188 205 190 178 181 190 196 210 215 220 227 236 244 251 254 257 263 275 289 295
260 251 228 218 220 203 157 156 166 191 186 181 180 184 184 181 181 178 171 164 166 184 191 189 200 206 186 181 184 192 206 225 223 219 228 240 247 251 257 260 264 268 273 278
195 231 228 234 229 219 208 202 194 195 190 189 195 187 168 157 157 172 184 185 186 193 192 193 204 199 185 185 187 197 206 227 237 235 230 237 243 247 252 255 260 266 268 271
216 219 210 203 202 209 219 207 190 189 194 199 181 162 164 171 184 196 196 180 177 196 208 206 203 194 193 194 193 196 202 214 220 228 236 241 249 250 253 258 263 268 276 281
226 225 225 214 200 188 190 194 197 200 196 167 160 174 187 194 194 192 177 168 183 210 225 216 209 200 202 209 202 196 204 216 227 234 238 253 260 256 256 258 262 265 270 275
261 243 182 160 136 157 182 195 178 166 172 159 155 161 181 205 197 186 178 191 210 217 215 205 199 201 208 214 208 198 207 217 227 237 240 242 250 256 257 259 261 266 269 269
233 194 161 157 162 181 185 179 165 174 181 158 163 185 202 212 195 180 177 217 241 226 209 204 197 205 209 214 212 202 210 220 227 233 237 242 248 254 258 260 263 266 270 272
227 186 193 178 156 236 263 191 171 172 166 164 171 177 180 202 202 200 208 221 235 219 201 206 210 218 219 214 200 203 214 221 228 231 234 238 244 251 257 260 263 268 270 271
289 215 195 195 190 202 254 213 180 173 180 191 192 192 197 209 202 198 241 246 233 228 214 216 225 227 224 209 202 210 218 224 229 233 236 239 242 248 256 261 264 268 272 273
311 305 290 276 168 145 209 253 242 226 217 221 218 209 201 206 236 232 229 242 241 238 226 230 233 233 227 210 213 221 227 231 235 238 241 244 246 251 256 260 265 268 270 272
304 307 312 297 246 242 236 237 254 270 258 259 253 242 226 207 215 235 236 240 244 243 237 241 244 245 232 219 222 228 233 237 241 243 239 245 250 255 258 260 264 268 270 270
281 275 264 253 248 248 242 231 242 252 246 254 263 258 253 248 237 234 231 234 238 241 238 236 237 242 233 232 233 235 236 248 257 253 247 250 254 257 261 264 267 268 270 271
287 283 283 287 277 248 232 226 232 244 240 234 247 250 244 243 242 239 237 235 234 232 230 230 232 234 236 237 239 242 242 241 242 245 249 252 255 258 262 265 268 270 272 273